Regional Weather Roundup
Issued by NWS

Home | Current Version | Previous Version | Text Only | Print | Product List | Glossary On
Versions: 1 2 3 4 5 6 7 8 9 10 11 12 13 14 15 16 17 18 19 20 21 22 23 24 25 26 27
000
ASUS45 KBOI 292110
RWRID

IDAHO REGIONAL WEATHER ROUNDUP
NATIONAL WEATHER SERVICE BOISE ID
300 PM MDT FRI JUL 29 2016

NOTE: "FAIR" INDICATES FEW OR NO CLOUDS BELOW 12000 FEET
WITH NO SIGNIFICANT WEATHER AND/OR OBSTRUCTIONS TO VISIBILITY

IDZ012-014-292200-
SOUTHWEST IDAHO


CITY           SKY/WX    TMP DP  RH WIND       PRES   REMARKS
BOISE          SUNNY     96  41  15 NW8       29.93F HX  92
CALDWELL       SUNNY     95  51  22 NW8       29.91F HX  92
MOUNTAIN HOME  SUNNY    100  39  12 VRB6      29.92F HX  95
$$

IDZ016-017-292200-
SOUTHCENTRAL IDAHO


CITY           SKY/WX    TMP DP  RH WIND       PRES   REMARKS
BURLEY         SUNNY     90  49  24 W10       30.01F
JEROME         SUNNY     94  44  17 SW9       30.01F HX  90
TWIN FALLS     SUNNY     95  39  14 NW10      30.02F HX  91
$$

IDZ019>023-292200-
SOUTHEAST IDAHO


CITY           SKY/WX    TMP DP  RH WIND       PRES   REMARKS
IDAHO FALLS    SUNNY     88  43  20 VRB3      30.06F
POCATELLO      SUNNY     92  32  12 SW9G16    30.04F
REXBURG        SUNNY     87  40  19 MISG      30.06F
$$

IDZ006-010-011-018-031-032-292200-
CENTRAL IDAHO MOUNTAINS


CITY           SKY/WX    TMP DP  RH WIND       PRES   REMARKS
MCCALL         SUNNY     87  34  15 W10       30.09F
HAILEY         SUNNY     91  36  14 W9G17     30.06F
STANLEY          N/A     85  24  11 W12G18    30.18F
SALMON         SUNNY     91  43  18 N3        29.97F
CHALLIS        SUNNY     90  34  13 E6        30.03F
$$

IDZ002-004-006-007-026-292200-
NORTHERN IDAHO


CITY           SKY/WX    TMP DP  RH WIND       PRES   REMARKS
LEWISTON       SUNNY     99  43  14 VRB5      29.86F HX  95
LOWELL           N/A     98  48  18 VRB5      29.86F HX  94
COEUR D`ALENE  SUNNY     95  52  23 W9        29.90F HX  92
MULLAN PASS    MOSUNNY   77  45  32 CALM      30.20F
$$




USA.gov is the U.S. government's official web portal to all federal, state and local government web resources and services.